DW5462 Weather Reports


time (UTC)temp
C
wind
direction
speed
KPH
gust
KPH
rain 1hr
cm
rain 24hr
cm
rain mn
cm
humidity
%
barometer
mb
20260509113039 19 24 0.0 6.4 0.00 0.00 0.00 58 1017.1
20260509111545 19 47 1.6 6.4 0.00 0.00 0.00 56 1017.2
20260509104540 18 69 0.0 8.0 0.00 0.00 0.00 58 1017.6
20260509103029 19 45 0.0 4.8 0.00 0.00 0.00 57 1017.7
20260509101536 19 80 0.0 8.0 0.00 0.00 0.00 55 1017.8
20260509094536 18 61 0.0 8.0 0.00 0.00 0.00 55 1017.9
20260509093027 18 55 1.6 11.3 0.00 0.00 0.00 56 1017.9
20260509091535 18 47 1.6 8.0 0.00 0.00 0.00 57 1018.0
20260509084511 17 62 0.0 6.4 0.00 0.00 0.00 64 1018.2
20260509083009 16 26 1.6 6.4 0.00 0.00 0.00 67 1018.2
20260509081504 16 22 0.0 8.0 0.00 0.00 0.00 68 1018.3
20260509080200 14 49 1.6 4.8 0.00 0.00 0.00 73 1018.3
20260509074559 13 55 0.0 6.4 0.00 0.00 0.00 74 1018.4
20260509073105 13 71 0.0 6.4 0.00 0.00 0.00 76 1018.4
20260509071556 12 42 0.0 3.2 0.00 0.00 0.00 76 1018.6
20260509070149 12 36 0.0 3.2 0.00 0.00 0.00 78 1018.6
20260509064557 12 32 0.0 3.2 0.00 0.00 0.00 80 1018.6
20260509063044 11 32 0.0 6.4 0.00 0.00 0.00 83 1018.4
20260509061538 10 33 0.0 4.8 0.00 0.00 0.00 90 1018.5
20260509060136 9 17 0.0 0.0 0.00 0.00 0.00 93 1018.5
20260509054544 8 17 0.0 0.0 0.00 0.00 0.00 94 1018.5
20260509053033 7 17 0.0 0.0 0.00 0.00 0.00 93 1018.5
20260509051529 6 17 0.0 0.0 0.00 0.00 0.00 92 1018.5
20260509050129 6 17 0.0 0.0 0.00 0.00 0.00 90 1018.5
20260509044525 6 17 0.0 0.0 0.00 0.00 0.00 89 1018.5
20260509043021 6 17 0.0 0.0 0.00 0.00 0.00 89 1018.2
20260509041530 6 17 0.0 0.0 0.00 0.00 0.00 89 1018.2
20260509040120 6 17 0.0 0.0 0.00 0.00 0.00 89 1018.1
20260509034516 6 17 0.0 0.0 0.00 0.03 0.00 89 1018.2
20260509033014 6 17 0.0 0.0 0.00 0.03 0.00 89 1018.4
20260509031513 7 17 0.0 0.0 0.00 0.03 0.00 88 1018.3
20260509030111 7 17 0.0 0.0 0.00 0.03 0.00 89 1018.4
20260509024510 7 17 0.0 0.0 0.00 0.03 0.00 89 1018.5
20260509023010 7 17 0.0 0.0 0.00 0.03 0.00 89 1018.6
20260509021509 7 17 0.0 0.0 0.00 0.03 0.00 88 1018.5
20260509020108 7 17 0.0 0.0 0.00 0.03 0.00 88 1018.3
20260509014512 7 17 0.0 0.0 0.00 0.03 0.00 88 1018.2
20260509013017 7 17 0.0 0.0 0.00 0.03 0.00 87 1018.4
20260509011506 8 17 0.0 0.0 0.00 0.03 0.00 87 1018.3
20260509010108 8 17 0.0 0.0 0.00 0.03 0.00 86 1018.3
20260509004515 8 17 0.0 0.0 0.00 0.03 0.00 85 1018.3
20260509003007 8 17 0.0 0.0 0.00 0.03 0.00 84 1018.3
20260509001505 8 17 0.0 0.0 0.00 0.03 0.00 83 1018.3
20260509000127 8 17 0.0 0.0 0.00 0.03 0.00 82 1018.4
20260508234558 8 17 0.0 0.0 0.00 0.03 0.00 82 1018.4
20260508233111 8 17 0.0 0.0 0.00 0.03 0.00 82 1018.4
20260508231555 9 17 0.0 0.0 0.00 0.03 0.00 82 1018.4
20260508230056 9 17 0.0 0.0 0.00 0.03 0.00 81 1018.4
20260508224529 9 17 0.0 0.0 0.00 0.03 0.00 80 1018.5
20260508223031 9 17 0.0 0.0 0.00 0.03 0.00 79 1018.5
20260508221521 10 17 0.0 0.0 0.00 0.03 0.00 78 1018.6
20260508220024 10 17 0.0 0.0 0.00 0.03 0.00 78 1018.6
20260508214526 10 17 0.0 0.0 0.00 0.03 0.03 78 1018.5
20260508213018 10 17 0.0 0.0 0.00 0.03 0.03 77 1018.5
20260508211532 10 17 0.0 0.0 0.00 0.03 0.03 77 1018.5
20260508210016 11 17 0.0 3.2 0.00 0.03 0.03 77 1018.5
20260508204517 11 17 0.0 3.2 0.00 0.03 0.03 76 1018.4
20260508203016 11 17 0.0 4.8 0.00 0.03 0.03 75 1018.4
20260508201516 11 17 0.0 0.0 0.00 0.03 0.03 75 1018.4
20260508200016 11 17 0.0 4.8 0.00 0.03 0.03 75 1018.2
20260508194527 11 19 0.0 0.0 0.00 0.03 0.03 75 1018.2
20260508193016 12 19 0.0 0.0 0.00 0.03 0.03 73 1018.0
20260508191526 12 19 0.0 0.0 0.00 0.03 0.03 70 1017.7
20260508190018 13 19 0.0 0.0 0.00 0.03 0.03 68 1017.5
20260508184518 13 19 0.0 1.6 0.00 0.03 0.03 66 1017.3
20260508183023 14 19 0.0 0.0 0.00 0.03 0.03 64 1017.3
20260508181514 15 19 0.0 1.6 0.00 0.03 0.03 62 1017.1
20260508180016 15 19 0.0 8.0 0.00 0.03 0.03 60 1017.0
20260508174515 16 21 1.6 8.0 0.00 0.03 0.03 60 1016.7
20260508173015 16 17 1.6 8.0 0.00 0.03 0.03 59 1016.6
20260508171513 16 25 0.0 4.8 0.00 0.03 0.03 60 1016.5
20260508170012 17 30 1.6 8.0 0.00 0.03 0.03 59 1016.4
20260508164513 17 9 0.0 9.7 0.00 0.03 0.03 59 1016.4
20260508163016 17 26 0.0 8.0 0.00 0.03 0.03 60 1016.5
20260508161511 17 11 0.0 9.7 0.00 0.03 0.03 61 1016.4
20260508160008 17 27 0.0 9.7 0.00 0.03 0.03 61 1016.5
20260508154518 17 11 1.6 11.3 0.00 0.03 0.03 60 1016.6
20260508153007 17 83 0.0 9.7 0.00 0.03 0.03 59 1016.6
20260508151512 17 17 1.6 6.4 0.00 0.03 0.03 60 1016.7
20260508150006 17 19 0.0 8.0 0.00 0.03 0.03 62 1016.7
20260508144506 17 17 1.6 9.7 0.00 0.03 0.03 61 1016.8
20260508143006 17 11 1.6 9.7 0.00 0.03 0.03 60 1017.0
20260508141502 17 22 0.0 6.4 0.00 0.03 0.03 59 1017.0
20260508140058 17 24 0.0 6.4 0.00 0.03 0.03 62 1017.2
20260508134622 16 313 0.0 4.8 0.00 0.03 0.03 62 1017.3
20260508133100 16 18 1.6 9.7 0.00 0.03 0.03 63 1017.5
20260508131554 16 9 1.6 11.3 0.00 0.03 0.03 63 1017.6
20260508130053 16 23 0.0 4.8 0.00 0.03 0.03 64 1017.7
20260508124555 16 25 0.0 4.8 0.00 0.03 0.03 63 1017.8
20260508123055 16 26 0.0 6.4 0.00 0.03 0.03 64 1017.8
20260508121553 16 19 0.0 9.7 0.00 0.03 0.03 62 1017.8
20260508120052 16 34 1.6 8.0 0.00 0.03 0.03 62 1017.8
20260508114549 16 42 1.6 11.3 0.00 0.03 0.03 63 1017.9